Wetterdaten: Samstag, 04.02.2017
Datum Zeit Temperatur Luftfeuchte Luftdruck Regen Wind Richtung Richtung Sonnenschein ET UV Solar Taupunkt Windchill Windben
04.02.2017 00:00 3,4 C 95 % 1004,1 hPa 0,0 l/m 0,0 km/h (0 Bft) S 172 0 min 0,000 mm 0,0 UV-I 0 W/m 2,7 C 3,4 C 0,0 km/h (0 Bft)
04.02.2017 00:05 3,6 C 95 % 1004,1 hPa 0,0 l/m 0,0 km/h (0 Bft) O 94 0 min 0,000 mm 0,0 UV-I 0 W/m 2,9 C 3,6 C 0,0 km/h (0 Bft)
04.02.2017 00:10 3,7 C 95 % 1004,1 hPa 0,0 l/m 0,0 km/h (0 Bft) O-NO 75 0 min 0,000 mm 0,0 UV-I 0 W/m 3,0 C 3,7 C 0,0 km/h (0 Bft)
04.02.2017 00:15 4,1 C 96 % 1004,1 hPa 0,0 l/m 0,0 km/h (0 Bft) O 96 0 min 0,000 mm 0,0 UV-I 0 W/m 3,5 C 4,1 C 0,0 km/h (0 Bft)
04.02.2017 00:20 4,3 C 96 % 1003,8 hPa 0,0 l/m 0,2 km/h (0 Bft) O-NO 64 0 min 0,000 mm 0,0 UV-I 0 W/m 3,7 C 4,3 C 1,6 km/h (1 Bft)
04.02.2017 00:25 4,5 C 96 % 1003,8 hPa 0,0 l/m 0,0 km/h (0 Bft) O 88 0 min 0,000 mm 0,0 UV-I 0 W/m 3,9 C 4,5 C 0,0 km/h (0 Bft)
04.02.2017 00:30 4,5 C 96 % 1003,9 hPa 0,0 l/m 1,7 km/h (1 Bft) O-SO 109 0 min 0,000 mm 0,0 UV-I 0 W/m 3,9 C 4,5 C 6,4 km/h (2 Bft)
04.02.2017 00:35 4,8 C 96 % 1003,8 hPa 0,0 l/m 4,7 km/h (1 Bft) O 98 0 min 0,000 mm 0,0 UV-I 0 W/m 4,2 C 4,8 C 8,0 km/h (2 Bft)
04.02.2017 00:40 5,2 C 96 % 1003,8 hPa 0,0 l/m 5,2 km/h (1 Bft) S-SO 152 0 min 0,000 mm 0,0 UV-I 0 W/m 4,6 C 5,2 C 9,7 km/h (2 Bft)
04.02.2017 00:45 5,3 C 95 % 1003,7 hPa 0,0 l/m 2,8 km/h (1 Bft) O 100 0 min 0,000 mm 0,0 UV-I 0 W/m 4,6 C 5,3 C 8,0 km/h (2 Bft)
04.02.2017 00:50 5,6 C 95 % 1003,7 hPa 0,0 l/m 2,5 km/h (1 Bft) O-SO 111 0 min 0,000 mm 0,0 UV-I 0 W/m 4,9 C 5,6 C 8,0 km/h (2 Bft)
04.02.2017 00:55 5,7 C 94 % 1003,6 hPa 0,0 l/m 2,8 km/h (1 Bft) O 91 0 min 0,000 mm 0,0 UV-I 0 W/m 4,8 C 5,7 C 8,0 km/h (2 Bft)
04.02.2017 01:00 5,8 C 94 % 1003,7 hPa 0,0 l/m 1,4 km/h (1 Bft) O 95 0 min 0,000 mm 0,0 UV-I 0 W/m 4,9 C 5,8 C 6,4 km/h (2 Bft)
04.02.2017 01:05 5,9 C 93 % 1003,6 hPa 0,0 l/m 0,6 km/h (0 Bft) O-SO 103 0 min 0,000 mm 0,0 UV-I 0 W/m 4,9 C 5,9 C 3,2 km/h (1 Bft)
04.02.2017 01:10 5,8 C 93 % 1003,5 hPa 0,0 l/m 0,9 km/h (0 Bft) O-SO 111 0 min 0,000 mm 0,0 UV-I 0 W/m 4,8 C 5,8 C 4,8 km/h (1 Bft)
04.02.2017 01:15 5,9 C 93 % 1003,4 hPa 0,0 l/m 4,3 km/h (1 Bft) SO 138 0 min 0,000 mm 0,0 UV-I 0 W/m 4,9 C 5,9 C 9,7 km/h (2 Bft)
04.02.2017 01:20 5,9 C 92 % 1003,4 hPa 0,0 l/m 1,7 km/h (1 Bft) O-SO 119 0 min 0,000 mm 0,0 UV-I 0 W/m 4,7 C 5,9 C 9,7 km/h (2 Bft)
04.02.2017 01:25 6,0 C 92 % 1003,4 hPa 0,0 l/m 4,0 km/h (1 Bft) O-SO 106 0 min 0,000 mm 0,0 UV-I 0 W/m 4,8 C 6,0 C 8,0 km/h (2 Bft)
04.02.2017 01:30 6,0 C 92 % 1003,3 hPa 0,0 l/m 1,2 km/h (1 Bft) O-SO 111 0 min 0,000 mm 0,0 UV-I 0 W/m 4,8 C 6,0 C 6,4 km/h (2 Bft)
04.02.2017 01:35 5,9 C 92 % 1003,2 hPa 0,0 l/m 0,8 km/h (0 Bft) O-SO 123 0 min 0,000 mm 0,0 UV-I 0 W/m 4,7 C 5,9 C 4,8 km/h (1 Bft)
04.02.2017 01:40 5,9 C 92 % 1003,2 hPa 0,0 l/m 0,0 km/h (0 Bft) O 94 0 min 0,000 mm 0,0 UV-I 0 W/m 4,7 C 5,9 C 0,0 km/h (0 Bft)
04.02.2017 01:45 5,8 C 92 % 1003,1 hPa 0,0 l/m 0,0 km/h (0 Bft) SO 132 0 min 0,000 mm 0,0 UV-I 0 W/m 4,6 C 5,8 C 0,0 km/h (0 Bft)
04.02.2017 01:50 5,8 C 92 % 1003,1 hPa 0,0 l/m 0,1 km/h (0 Bft) O-SO 113 0 min 0,000 mm 0,0 UV-I 0 W/m 4,6 C 5,8 C 3,2 km/h (1 Bft)
04.02.2017 01:55 5,7 C 91 % 1003,2 hPa 0,0 l/m 0,2 km/h (0 Bft) O-NO 72 0 min 0,000 mm 0,0 UV-I 0 W/m 4,3 C 5,7 C 3,2 km/h (1 Bft)
04.02.2017 02:00 5,7 C 91 % 1003,2 hPa 0,0 l/m 0,2 km/h (0 Bft) O-SO 103 0 min 0,000 mm 0,0 UV-I 0 W/m 4,3 C 5,7 C 3,2 km/h (1 Bft)
04.02.2017 02:05 5,7 C 91 % 1003,1 hPa 0,0 l/m 0,0 km/h (0 Bft) O 95 0 min 0,000 mm 0,0 UV-I 0 W/m 4,3 C 5,7 C 0,0 km/h (0 Bft)
04.02.2017 02:10 5,7 C 91 % 1003,1 hPa 0,0 l/m 0,0 km/h (0 Bft) O 94 0 min 0,000 mm 0,0 UV-I 0 W/m 4,3 C 5,7 C 0,0 km/h (0 Bft)
04.02.2017 02:15 5,8 C 91 % 1003,0 hPa 0,0 l/m 2,7 km/h (1 Bft) O-SO 113 0 min 0,000 mm 0,0 UV-I 0 W/m 4,4 C 5,8 C 8,0 km/h (2 Bft)
04.02.2017 02:20 5,8 C 90 % 1003,1 hPa 0,0 l/m 1,0 km/h (0 Bft) O 81 0 min 0,000 mm 0,0 UV-I 0 W/m 4,3 C 5,8 C 6,4 km/h (2 Bft)
04.02.2017 02:25 5,9 C 90 % 1003,1 hPa 0,0 l/m 1,4 km/h (1 Bft) S 180 0 min 0,000 mm 0,0 UV-I 0 W/m 4,4 C 5,9 C 6,4 km/h (2 Bft)
04.02.2017 02:30 6,0 C 90 % 1003,3 hPa 0,0 l/m 5,3 km/h (1 Bft) SO 142 0 min 0,000 mm 0,0 UV-I 0 W/m 4,5 C 6,0 C 12,9 km/h (3 Bft)
04.02.2017 02:35 6,1 C 90 % 1003,3 hPa 0,0 l/m 0,7 km/h (0 Bft) SO 146 0 min 0,000 mm 0,0 UV-I 0 W/m 4,6 C 6,1 C 6,4 km/h (2 Bft)
04.02.2017 02:40 6,0 C 90 % 1003,5 hPa 0,0 l/m 4,1 km/h (1 Bft) N-NO 28 0 min 0,000 mm 0,0 UV-I 0 W/m 4,5 C 6,0 C 8,0 km/h (2 Bft)
04.02.2017 02:45 5,9 C 90 % 1003,5 hPa 0,0 l/m 2,8 km/h (1 Bft) S 188 0 min 0,000 mm 0,0 UV-I 0 W/m 4,4 C 5,9 C 11,3 km/h (2 Bft)
04.02.2017 02:50 5,9 C 90 % 1003,4 hPa 0,0 l/m 3,6 km/h (1 Bft) S-SW 196 0 min 0,000 mm 0,0 UV-I 0 W/m 4,4 C 5,9 C 17,7 km/h (3 Bft)
04.02.2017 02:55 5,9 C 90 % 1003,5 hPa 0,0 l/m 3,5 km/h (1 Bft) S-SW 199 0 min 0,000 mm 0,0 UV-I 0 W/m 4,4 C 5,9 C 11,3 km/h (2 Bft)
04.02.2017 03:00 5,9 C 90 % 1003,6 hPa 0,0 l/m 5,7 km/h (1 Bft) S-SO 165 0 min 0,000 mm 0,0 UV-I 0 W/m 4,4 C 5,9 C 17,7 km/h (3 Bft)
04.02.2017 03:05 5,8 C 90 % 1003,6 hPa 0,0 l/m 7,3 km/h (2 Bft) W-SW 237 0 min 0,000 mm 0,0 UV-I 0 W/m 4,3 C 5,0 C 16,1 km/h (3 Bft)
04.02.2017 03:10 5,7 C 90 % 1003,6 hPa 0,0 l/m 4,0 km/h (1 Bft) SO 146 0 min 0,000 mm 0,0 UV-I 0 W/m 4,2 C 5,7 C 12,9 km/h (3 Bft)
04.02.2017 03:15 5,7 C 91 % 1003,6 hPa 0,0 l/m 5,5 km/h (1 Bft) S-SW 202 0 min 0,000 mm 0,0 UV-I 0 W/m 4,3 C 5,7 C 12,9 km/h (3 Bft)
04.02.2017 03:20 5,6 C 91 % 1003,5 hPa 0,2 l/m 3,0 km/h (1 Bft) W-SW 253 0 min 0,000 mm 0,0 UV-I 0 W/m 4,2 C 5,6 C 8,0 km/h (2 Bft)
04.02.2017 03:25 5,5 C 92 % 1003,5 hPa 0,0 l/m 2,2 km/h (1 Bft) SW 231 0 min 0,000 mm 0,0 UV-I 0 W/m 4,3 C 5,5 C 8,0 km/h (2 Bft)
04.02.2017 03:30 5,5 C 92 % 1003,5 hPa 0,0 l/m 5,0 km/h (1 Bft) S 170 0 min 0,000 mm 0,0 UV-I 0 W/m 4,3 C 5,5 C 9,7 km/h (2 Bft)
04.02.2017 03:35 5,4 C 92 % 1003,5 hPa 0,0 l/m 1,9 km/h (1 Bft) SW 218 0 min 0,000 mm 0,0 UV-I 0 W/m 4,2 C 5,4 C 8,0 km/h (2 Bft)
04.02.2017 03:40 5,4 C 92 % 1003,5 hPa 0,0 l/m 2,1 km/h (1 Bft) S 185 0 min 0,000 mm 0,0 UV-I 0 W/m 4,2 C 5,4 C 8,0 km/h (2 Bft)
04.02.2017 03:45 5,4 C 92 % 1003,5 hPa 0,2 l/m 6,5 km/h (2 Bft) W 279 0 min 0,000 mm 0,0 UV-I 0 W/m 4,2 C 5,3 C 17,7 km/h (3 Bft)
04.02.2017 03:50 5,4 C 92 % 1003,5 hPa 0,0 l/m 4,4 km/h (1 Bft) S-SO 163 0 min 0,000 mm 0,0 UV-I 0 W/m 4,2 C 5,4 C 11,3 km/h (2 Bft)
04.02.2017 03:55 5,3 C 92 % 1003,5 hPa 0,0 l/m 5,0 km/h (1 Bft) S-SO 153 0 min 0,000 mm 0,0 UV-I 0 W/m 4,1 C 5,3 C 11,3 km/h (2 Bft)
04.02.2017 04:00 5,3 C 93 % 1003,6 hPa 0,0 l/m 3,6 km/h (1 Bft) SW 223 0 min 0,000 mm 0,0 UV-I 0 W/m 4,3 C 5,3 C 9,7 km/h (2 Bft)
04.02.2017 04:05 5,3 C 93 % 1003,7 hPa 0,0 l/m 5,3 km/h (1 Bft) SW 216 0 min 0,000 mm 0,0 UV-I 0 W/m 4,3 C 5,3 C 14,5 km/h (3 Bft)
04.02.2017 04:10 5,3 C 92 % 1003,6 hPa 0,0 l/m 4,0 km/h (1 Bft) SW 229 0 min 0,000 mm 0,0 UV-I 0 W/m 4,1 C 5,3 C 11,3 km/h (2 Bft)
04.02.2017 04:15 5,3 C 92 % 1003,7 hPa 0,0 l/m 2,8 km/h (1 Bft) S-SW 212 0 min 0,000 mm 0,0 UV-I 0 W/m 4,1 C 5,3 C 8,0 km/h (2 Bft)
04.02.2017 04:20 5,2 C 92 % 1003,7 hPa 0,0 l/m 2,1 km/h (1 Bft) W-SW 254 0 min 0,000 mm 0,0 UV-I 0 W/m 4,0 C 5,2 C 6,4 km/h (2 Bft)
04.02.2017 04:25 5,2 C 92 % 1003,7 hPa 0,0 l/m 1,1 km/h (1 Bft) W-SW 250 0 min 0,000 mm 0,0 UV-I 0 W/m 4,0 C 5,2 C 4,8 km/h (1 Bft)
04.02.2017 04:30 5,2 C 92 % 1003,8 hPa 0,0 l/m 0,7 km/h (0 Bft) SW 224 0 min 0,000 mm 0,0 UV-I 0 W/m 4,0 C 5,2 C 4,8 km/h (1 Bft)
04.02.2017 04:35 5,2 C 92 % 1003,8 hPa 0,0 l/m 0,0 km/h (0 Bft) W-SW 238 0 min 0,000 mm 0,0 UV-I 0 W/m 4,0 C 5,2 C 0,0 km/h (0 Bft)
04.02.2017 04:40 5,1 C 92 % 1003,8 hPa 0,0 l/m 0,0 km/h (0 Bft) W 277 0 min 0,000 mm 0,0 UV-I 0 W/m 3,9 C 5,1 C 0,0 km/h (0 Bft)
04.02.2017 04:45 5,0 C 92 % 1003,9 hPa 0,0 l/m 0,0 km/h (0 Bft) W-NW 282 0 min 0,000 mm 0,0 UV-I 0 W/m 3,8 C 5,0 C 0,0 km/h (0 Bft)
04.02.2017 04:50 4,9 C 92 % 1003,8 hPa 0,0 l/m 0,0 km/h (0 Bft) W-NW 292 0 min 0,000 mm 0,0 UV-I 0 W/m 3,7 C 4,9 C 0,0 km/h (0 Bft)
04.02.2017 04:55 4,8 C 92 % 1003,9 hPa 0,0 l/m 0,0 km/h (0 Bft) W-SW 257 0 min 0,000 mm 0,0 UV-I 0 W/m 3,6 C 4,8 C 0,0 km/h (0 Bft)
04.02.2017 05:00 4,8 C 92 % 1003,8 hPa 0,0 l/m 0,0 km/h (0 Bft) W-SW 257 0 min 0,000 mm 0,0 UV-I 0 W/m 3,6 C 4,8 C 0,0 km/h (0 Bft)
04.02.2017 05:05 4,7 C 92 % 1003,9 hPa 0,0 l/m 0,0 km/h (0 Bft) W-SW 257 0 min 0,000 mm 0,0 UV-I 0 W/m 3,5 C 4,7 C 0,0 km/h (0 Bft)
04.02.2017 05:10 4,6 C 92 % 1003,9 hPa 0,0 l/m 0,0 km/h (0 Bft) W-SW 257 0 min 0,000 mm 0,0 UV-I 0 W/m 3,4 C 4,6 C 0,0 km/h (0 Bft)
04.02.2017 05:15 4,4 C 92 % 1004,0 hPa 0,0 l/m 0,0 km/h (0 Bft) W-SW 257 0 min 0,000 mm 0,0 UV-I 0 W/m 3,2 C 4,4 C 0,0 km/h (0 Bft)
04.02.2017 05:20 4,4 C 92 % 1003,9 hPa 0,0 l/m 0,0 km/h (0 Bft) W-SW 257 0 min 0,000 mm 0,0 UV-I 0 W/m 3,2 C 4,4 C 0,0 km/h (0 Bft)
04.02.2017 05:25 4,3 C 92 % 1003,9 hPa 0,0 l/m 0,0 km/h (0 Bft) W-SW 257 0 min 0,000 mm 0,0 UV-I 0 W/m 3,1 C 4,3 C 0,0 km/h (0 Bft)
04.02.2017 05:30 4,2 C 92 % 1003,9 hPa 0,0 l/m 0,0 km/h (0 Bft) W-SW 257 0 min 0,000 mm 0,0 UV-I 0 W/m 3,0 C 4,2 C 0,0 km/h (0 Bft)
04.02.2017 05:35 4,2 C 92 % 1003,7 hPa 0,0 l/m 0,0 km/h (0 Bft) W-SW 257 0 min 0,000 mm 0,0 UV-I 0 W/m 3,0 C 4,2 C 0,0 km/h (0 Bft)
04.02.2017 05:40 4,2 C 93 % 1003,7 hPa 0,0 l/m 0,0 km/h (0 Bft) W-SW 257 0 min 0,000 mm 0,0 UV-I 0 W/m 3,2 C 4,2 C 0,0 km/h (0 Bft)
04.02.2017 05:45 4,1 C 93 % 1003,9 hPa 0,0 l/m 0,0 km/h (0 Bft) W-SW 257 0 min 0,000 mm 0,0 UV-I 0 W/m 3,1 C 4,1 C 0,0 km/h (0 Bft)
04.02.2017 05:50 4,1 C 93 % 1004,0 hPa 0,0 l/m 0,0 km/h (0 Bft) W-SW 257 0 min 0,000 mm 0,0 UV-I 0 W/m 3,1 C 4,1 C 0,0 km/h (0 Bft)
04.02.2017 05:55 4,1 C 93 % 1004,1 hPa 0,0 l/m 0,0 km/h (0 Bft) W-SW 257 0 min 0,000 mm 0,0 UV-I 0 W/m 3,1 C 4,1 C 0,0 km/h (0 Bft)
04.02.2017 06:00 4,1 C 93 % 1004,2 hPa 0,0 l/m 0,0 km/h (0 Bft) W-SW 257 0 min 0,000 mm 0,0 UV-I 0 W/m 3,1 C 4,1 C 0,0 km/h (0 Bft)
04.02.2017 06:05 4,0 C 93 % 1004,1 hPa 0,0 l/m 0,0 km/h (0 Bft) W-SW 257 0 min 0,000 mm 0,0 UV-I 0 W/m 3,0 C 4,0 C 0,0 km/h (0 Bft)
04.02.2017 06:10 4,1 C 93 % 1004,1 hPa 0,0 l/m 0,0 km/h (0 Bft) W-SW 257 0 min 0,000 mm 0,0 UV-I 0 W/m 3,1 C 4,1 C 0,0 km/h (0 Bft)
04.02.2017 06:15 4,0 C 93 % 1004,2 hPa 0,0 l/m 0,0 km/h (0 Bft) W-SW 257 0 min 0,000 mm 0,0 UV-I 0 W/m 3,0 C 4,0 C 0,0 km/h (0 Bft)
04.02.2017 06:20 4,0 C 93 % 1004,2 hPa 0,0 l/m 0,0 km/h (0 Bft) W-SW 257 0 min 0,000 mm 0,0 UV-I 0 W/m 3,0 C 4,0 C 0,0 km/h (0 Bft)
04.02.2017 06:25 4,0 C 93 % 1004,2 hPa 0,0 l/m 0,0 km/h (0 Bft) W-SW 257 0 min 0,000 mm 0,0 UV-I 0 W/m 3,0 C 4,0 C 0,0 km/h (0 Bft)
04.02.2017 06:30 3,9 C 93 % 1004,2 hPa 0,0 l/m 0,0 km/h (0 Bft) W 259 0 min 0,000 mm 0,0 UV-I 0 W/m 2,9 C 3,9 C 0,0 km/h (0 Bft)
04.02.2017 06:35 3,8 C 93 % 1004,1 hPa 0,0 l/m 0,0 km/h (0 Bft) W 259 0 min 0,000 mm 0,0 UV-I 0 W/m 2,8 C 3,8 C 0,0 km/h (0 Bft)
04.02.2017 06:40 3,7 C 92 % 1004,2 hPa 0,0 l/m 0,0 km/h (0 Bft) W 259 0 min 0,000 mm 0,0 UV-I 0 W/m 2,5 C 3,7 C 0,0 km/h (0 Bft)
04.02.2017 06:45 3,5 C 92 % 1004,2 hPa 0,0 l/m 0,0 km/h (0 Bft) W 259 0 min 0,000 mm 0,0 UV-I 0 W/m 2,3 C 3,5 C 0,0 km/h (0 Bft)
04.02.2017 06:50 3,3 C 92 % 1004,2 hPa 0,0 l/m 0,0 km/h (0 Bft) NO 44 0 min 0,000 mm 0,0 UV-I 0 W/m 2,1 C 3,3 C 0,0 km/h (0 Bft)
04.02.2017 06:55 3,2 C 92 % 1004,2 hPa 0,0 l/m 0,0 km/h (0 Bft) NO 44 0 min 0,000 mm 0,0 UV-I 0 W/m 2,0 C 3,2 C 0,0 km/h (0 Bft)
04.02.2017 07:00 3,1 C 93 % 1004,2 hPa 0,0 l/m 0,0 km/h (0 Bft) NO 44 0 min 0,000 mm 0,0 UV-I 0 W/m 2,1 C 3,1 C 0,0 km/h (0 Bft)
04.02.2017 07:05 3,0 C 93 % 1004,1 hPa 0,0 l/m 0,0 km/h (0 Bft) N 355 0 min 0,000 mm 0,0 UV-I 0 W/m 2,0 C 3,0 C 0,0 km/h (0 Bft)
04.02.2017 07:10 3,0 C 93 % 1004,1 hPa 0,0 l/m 0,0 km/h (0 Bft) N 355 0 min 0,000 mm 0,0 UV-I 0 W/m 2,0 C 3,0 C 0,0 km/h (0 Bft)
04.02.2017 07:15 2,9 C 93 % 1004,1 hPa 0,0 l/m 0,0 km/h (0 Bft) S-SO 151 0 min 0,000 mm 0,0 UV-I 0 W/m 1,9 C 2,9 C 0,0 km/h (0 Bft)
04.02.2017 07:20 2,8 C 93 % 1004,1 hPa 0,0 l/m 0,0 km/h (0 Bft) S-SO 151 0 min 0,000 mm 0,0 UV-I 0 W/m 1,8 C 2,8 C 0,0 km/h (0 Bft)
04.02.2017 07:25 2,7 C 93 % 1004,1 hPa 0,0 l/m 0,0 km/h (0 Bft) S-SO 151 0 min 0,000 mm 0,0 UV-I 0 W/m 1,7 C 2,7 C 0,0 km/h (0 Bft)
04.02.2017 07:30 2,7 C 93 % 1004,1 hPa 0,0 l/m 0,0 km/h (0 Bft) O-NO 67 0 min 0,000 mm 0,0 UV-I 0 W/m 1,7 C 2,7 C 0,0 km/h (0 Bft)
04.02.2017 07:35 2,8 C 93 % 1004,1 hPa 0,0 l/m 0,0 km/h (0 Bft) O-NO 71 0 min 0,000 mm 0,0 UV-I 0 W/m 1,8 C 2,8 C 0,0 km/h (0 Bft)
04.02.2017 07:40 2,7 C 93 % 1004,1 hPa 0,0 l/m 0,0 km/h (0 Bft) O-NO 71 0 min 0,000 mm 0,0 UV-I 0 W/m 1,7 C 2,7 C 0,0 km/h (0 Bft)
04.02.2017 07:45 2,7 C 94 % 1004,1 hPa 0,0 l/m 0,0 km/h (0 Bft) O-NO 71 0 min 0,000 mm 0,0 UV-I 0 W/m 1,8 C 2,7 C 0,0 km/h (0 Bft)
04.02.2017 07:50 2,7 C 94 % 1004,0 hPa 0,0 l/m 0,0 km/h (0 Bft) O-NO 71 0 min 0,000 mm 0,0 UV-I 0 W/m 1,8 C 2,7 C 0,0 km/h (0 Bft)
04.02.2017 07:55 2,8 C 94 % 1004,0 hPa 0,0 l/m 0,0 km/h (0 Bft) O-NO 71 0 min 0,000 mm 0,0 UV-I 0 W/m 1,9 C 2,8 C 0,0 km/h (0 Bft)
04.02.2017 08:00 2,8 C 94 % 1004,1 hPa 0,0 l/m 0,0 km/h (0 Bft) O-NO 71 0 min 0,000 mm 0,0 UV-I 0 W/m 1,9 C 2,8 C 0,0 km/h (0 Bft)
04.02.2017 08:05 2,8 C 94 % 1004,0 hPa 0,0 l/m 0,0 km/h (0 Bft) O-NO 71 0 min 0,000 mm 0,0 UV-I 6 W/m 1,9 C 2,8 C 0,0 km/h (0 Bft)
04.02.2017 08:10 2,7 C 94 % 1003,9 hPa 0,0 l/m 0,0 km/h (0 Bft) O-NO 71 0 min 0,000 mm 0,0 UV-I 7 W/m 1,8 C 2,7 C 0,0 km/h (0 Bft)
04.02.2017 08:15 2,7 C 94 % 1003,9 hPa 0,0 l/m 0,0 km/h (0 Bft) O-NO 71 0 min 0,000 mm 0,0 UV-I 9 W/m 1,8 C 2,7 C 0,0 km/h (0 Bft)
04.02.2017 08:20 2,7 C 94 % 1003,8 hPa 0,0 l/m 0,0 km/h (0 Bft) O-NO 71 0 min 0,000 mm 0,0 UV-I 12 W/m 1,8 C 2,7 C 0,0 km/h (0 Bft)
04.02.2017 08:25 2,8 C 94 % 1003,8 hPa 0,0 l/m 0,0 km/h (0 Bft) O-NO 71 0 min 0,000 mm 0,0 UV-I 18 W/m 1,9 C 2,8 C 0,0 km/h (0 Bft)
04.02.2017 08:30 2,9 C 94 % 1003,8 hPa 0,0 l/m 0,0 km/h (0 Bft) NO 36 0 min 0,000 mm 0,0 UV-I 21 W/m 2,0 C 2,9 C 0,0 km/h (0 Bft)
04.02.2017 08:35 3,1 C 94 % 1003,8 hPa 0,0 l/m 0,0 km/h (0 Bft) NO 36 0 min 0,000 mm 0,0 UV-I 20 W/m 2,2 C 3,1 C 0,0 km/h (0 Bft)
04.02.2017 08:40 3,1 C 94 % 1003,7 hPa 0,0 l/m 0,0 km/h (0 Bft) NO 36 0 min 0,000 mm 0,0 UV-I 29 W/m 2,2 C 3,1 C 0,0 km/h (0 Bft)
04.02.2017 08:45 2,6 C 93 % 1003,7 hPa 0,0 l/m 0,0 km/h (0 Bft) O 88 0 min 0,000 mm 0,0 UV-I 38 W/m 1,6 C 2,6 C 0,0 km/h (0 Bft)
04.02.2017 08:50 2,2 C 93 % 1003,7 hPa 0,0 l/m 0,0 km/h (0 Bft) O 88 0 min 0,000 mm 0,0 UV-I 41 W/m 1,2 C 2,2 C 0,0 km/h (0 Bft)
04.02.2017 08:55 2,1 C 93 % 1003,7 hPa 0,0 l/m 0,0 km/h (0 Bft) O 88 0 min 0,000 mm 0,0 UV-I 46 W/m 1,1 C 2,1 C 0,0 km/h (0 Bft)
04.02.2017 09:00 2,1 C 94 % 1003,8 hPa 0,0 l/m 0,0 km/h (0 Bft) O 88 0 min 0,000 mm 0,0 UV-I 52 W/m 1,2 C 2,1 C 0,0 km/h (0 Bft)
04.02.2017 09:05 2,1 C 94 % 1003,8 hPa 0,0 l/m 0,0 km/h (0 Bft) O 88 0 min 0,000 mm 0,0 UV-I 59 W/m 1,2 C 2,1 C 0,0 km/h (0 Bft)
04.02.2017 09:10 2,3 C 94 % 1003,8 hPa 0,0 l/m 0,0 km/h (0 Bft) O 88 0 min 0,000 mm 0,0 UV-I 66 W/m 1,4 C 2,3 C 0,0 km/h (0 Bft)
04.02.2017 09:15 2,6 C 95 % 1003,8 hPa 0,0 l/m 0,0 km/h (0 Bft) O 88 0 min 0,000 mm 0,0 UV-I 69 W/m 1,9 C 2,6 C 0,0 km/h (0 Bft)
04.02.2017 09:20 2,8 C 95 % 1003,7 hPa 0,0 l/m 0,0 km/h (0 Bft) O 88 0 min 0,000 mm 0,0 UV-I 76 W/m 2,1 C 2,8 C 0,0 km/h (0 Bft)
04.02.2017 09:25 2,9 C 95 % 1003,7 hPa 0,0 l/m 0,0 km/h (0 Bft) O-NO 63 0 min 0,000 mm 0,0 UV-I 88 W/m 2,2 C 2,9 C 0,0 km/h (0 Bft)
04.02.2017 09:30 3,0 C 94 % 1003,5 hPa 0,0 l/m 0,0 km/h (0 Bft) O-NO 63 0 min 0,000 mm 0,0 UV-I 92 W/m 2,1 C 3,0 C 0,0 km/h (0 Bft)
04.02.2017 09:35 3,2 C 95 % 1003,3 hPa 0,0 l/m 0,0 km/h (0 Bft) O-NO 63 0 min 0,000 mm 0,0 UV-I 99 W/m 2,5 C 3,2 C 0,0 km/h (0 Bft)
04.02.2017 09:40 3,1 C 94 % 1003,1 hPa 0,0 l/m 0,0 km/h (0 Bft) O-NO 64 0 min 0,000 mm 0,0 UV-I 107 W/m 2,2 C 3,1 C 0,0 km/h (0 Bft)
04.02.2017 09:45 2,8 C 94 % 1003,1 hPa 0,0 l/m 0,0 km/h (0 Bft) S-SO 165 0 min 0,000 mm 0,0 UV-I 114 W/m 1,9 C 2,8 C 0,0 km/h (0 Bft)
04.02.2017 09:50 2,8 C 94 % 1003,1 hPa 0,0 l/m 0,0 km/h (0 Bft) S-SO 165 0 min 0,000 mm 0,0 UV-I 121 W/m 1,9 C 2,8 C 0,0 km/h (0 Bft)
04.02.2017 09:55 2,9 C 94 % 1002,9 hPa 0,0 l/m 0,0 km/h (0 Bft) O 85 0 min 0,000 mm 0,0 UV-I 122 W/m 2,0 C 2,9 C 0,0 km/h (0 Bft)
04.02.2017 10:00 3,6 C 95 % 1002,7 hPa 0,0 l/m 3,2 km/h (1 Bft) O-NO 67 0 min 0,000 mm 0,1 UV-I 122 W/m 2,9 C 3,6 C 8,0 km/h (2 Bft)
04.02.2017 10:05 3,8 C 95 % 1002,7 hPa 0,0 l/m 1,5 km/h (1 Bft) O-NO 71 0 min 0,025 mm 0,5 UV-I 116 W/m 3,1 C 3,8 C 8,0 km/h (2 Bft)
04.02.2017 10:10 3,9 C 95 % 1002,5 hPa 0,0 l/m 2,8 km/h (1 Bft) NO 41 0 min 0,000 mm 0,5 UV-I 116 W/m 3,2 C 3,9 C 8,0 km/h (2 Bft)
04.02.2017 10:15 4,1 C 94 % 1002,3 hPa 0,0 l/m 2,1 km/h (1 Bft) NO 52 0 min 0,000 mm 0,5 UV-I 118 W/m 3,2 C 4,1 C 8,0 km/h (2 Bft)
04.02.2017 10:20 4,2 C 94 % 1002,3 hPa 0,0 l/m 0,7 km/h (0 Bft) NO 45 0 min 0,000 mm 0,5 UV-I 119 W/m 3,3 C 4,2 C 8,0 km/h (2 Bft)
04.02.2017 10:25 4,3 C 94 % 1002,3 hPa 0,0 l/m 0,2 km/h (0 Bft) NO 54 0 min 0,000 mm 0,5 UV-I 119 W/m 3,4 C 4,3 C 3,2 km/h (1 Bft)
04.02.2017 10:30 4,3 C 94 % 1002,3 hPa 0,0 l/m 2,3 km/h (1 Bft) NO 55 0 min 0,000 mm 0,5 UV-I 122 W/m 3,4 C 4,3 C 8,0 km/h (2 Bft)
04.02.2017 10:35 4,4 C 93 % 1002,4 hPa 0,0 l/m 0,7 km/h (0 Bft) O-SO 106 0 min 0,000 mm 0,5 UV-I 121 W/m 3,4 C 4,4 C 6,4 km/h (2 Bft)
04.02.2017 10:40 4,6 C 93 % 1002,4 hPa 0,0 l/m 0,6 km/h (0 Bft) NO 50 0 min 0,000 mm 0,5 UV-I 122 W/m 3,6 C 4,6 C 4,8 km/h (1 Bft)
04.02.2017 10:45 4,7 C 93 % 1002,3 hPa 0,0 l/m 2,3 km/h (1 Bft) NO 39 0 min 0,000 mm 0,6 UV-I 132 W/m 3,7 C 4,7 C 8,0 km/h (2 Bft)
04.02.2017 10:50 4,8 C 93 % 1002,3 hPa 0,0 l/m 1,4 km/h (1 Bft) NO 41 0 min 0,000 mm 0,6 UV-I 143 W/m 3,8 C 4,8 C 6,4 km/h (2 Bft)
04.02.2017 10:55 4,9 C 93 % 1002,2 hPa 0,0 l/m 0,7 km/h (0 Bft) N-NO 15 0 min 0,000 mm 0,6 UV-I 146 W/m 3,9 C 4,9 C 4,8 km/h (1 Bft)
04.02.2017 11:00 5,1 C 93 % 1002,1 hPa 0,0 l/m 0,4 km/h (0 Bft) O-NO 78 0 min 0,000 mm 0,6 UV-I 144 W/m 4,1 C 5,1 C 3,2 km/h (1 Bft)
04.02.2017 11:05 5,2 C 92 % 1002,0 hPa 0,0 l/m 1,8 km/h (1 Bft) NO 51 0 min 0,051 mm 0,6 UV-I 142 W/m 4,0 C 5,2 C 6,4 km/h (2 Bft)
04.02.2017 11:10 5,3 C 92 % 1001,8 hPa 0,0 l/m 3,0 km/h (1 Bft) O-NO 60 0 min 0,000 mm 0,6 UV-I 135 W/m 4,1 C 5,3 C 8,0 km/h (2 Bft)
04.02.2017 11:15 5,3 C 91 % 1001,6 hPa 0,0 l/m 2,9 km/h (1 Bft) O-NO 74 0 min 0,000 mm 0,6 UV-I 132 W/m 4,0 C 5,3 C 8,0 km/h (2 Bft)
04.02.2017 11:20 5,3 C 91 % 1001,6 hPa 0,0 l/m 2,3 km/h (1 Bft) O-NO 63 0 min 0,000 mm 0,6 UV-I 130 W/m 4,0 C 5,3 C 6,4 km/h (2 Bft)
04.02.2017 11:25 5,3 C 90 % 1001,6 hPa 0,0 l/m 3,6 km/h (1 Bft) NO 41 0 min 0,000 mm 0,6 UV-I 127 W/m 3,8 C 5,3 C 8,0 km/h (2 Bft)
04.02.2017 11:30 5,3 C 90 % 1001,5 hPa 0,0 l/m 2,7 km/h (1 Bft) O-NO 78 0 min 0,000 mm 0,6 UV-I 131 W/m 3,8 C 5,3 C 9,7 km/h (2 Bft)
04.02.2017 11:35 5,3 C 90 % 1001,5 hPa 0,0 l/m 2,3 km/h (1 Bft) O-SO 103 0 min 0,000 mm 0,6 UV-I 135 W/m 3,8 C 5,3 C 8,0 km/h (2 Bft)
04.02.2017 11:40 5,3 C 89 % 1001,4 hPa 0,0 l/m 3,3 km/h (1 Bft) O-NO 61 0 min 0,000 mm 0,7 UV-I 135 W/m 3,6 C 5,3 C 8,0 km/h (2 Bft)
04.02.2017 11:45 5,3 C 89 % 1001,4 hPa 0,0 l/m 3,3 km/h (1 Bft) NO 51 0 min 0,000 mm 0,6 UV-I 134 W/m 3,6 C 5,3 C 9,7 km/h (2 Bft)
04.02.2017 11:50 5,3 C 88 % 1001,4 hPa 0,0 l/m 3,8 km/h (1 Bft) NO 39 0 min 0,000 mm 0,6 UV-I 136 W/m 3,5 C 5,3 C 12,9 km/h (3 Bft)
04.02.2017 11:55 5,4 C 88 % 1001,4 hPa 0,0 l/m 3,0 km/h (1 Bft) O 88 0 min 0,000 mm 0,7 UV-I 143 W/m 3,6 C 5,4 C 4,8 km/h (1 Bft)
04.02.2017 12:00 5,5 C 89 % 1001,3 hPa 0,0 l/m 4,2 km/h (1 Bft) NO 48 0 min 0,000 mm 0,7 UV-I 146 W/m 3,8 C 5,5 C 8,0 km/h (2 Bft)
04.02.2017 12:05 5,6 C 89 % 1001,3 hPa 0,0 l/m 2,6 km/h (1 Bft) O 83 0 min 0,051 mm 0,7 UV-I 148 W/m 3,9 C 5,6 C 8,0 km/h (2 Bft)
04.02.2017 12:10 5,7 C 89 % 1001,3 hPa 0,0 l/m 2,0 km/h (1 Bft) O-NO 67 0 min 0,000 mm 0,7 UV-I 156 W/m 4,0 C 5,7 C 8,0 km/h (2 Bft)
04.02.2017 12:15 5,8 C 89 % 1001,2 hPa 0,0 l/m 2,1 km/h (1 Bft) NO 44 0 min 0,000 mm 0,7 UV-I 156 W/m 4,1 C 5,8 C 6,4 km/h (2 Bft)
04.02.2017 12:20 5,9 C 88 % 1001,2 hPa 0,0 l/m 2,1 km/h (1 Bft) O-NO 60 0 min 0,000 mm 0,7 UV-I 170 W/m 4,1 C 5,9 C 6,4 km/h (2 Bft)
04.02.2017 12:25 6,1 C 88 % 1001,1 hPa 0,0 l/m 2,4 km/h (1 Bft) N-NO 17 0 min 0,000 mm 0,7 UV-I 176 W/m 4,3 C 6,1 C 4,8 km/h (1 Bft)
04.02.2017 12:30 6,2 C 88 % 1001,0 hPa 0,0 l/m 3,4 km/h (1 Bft) O-NO 63 0 min 0,000 mm 0,7 UV-I 179 W/m 4,4 C 6,2 C 8,0 km/h (2 Bft)
04.02.2017 12:35 6,3 C 87 % 1000,9 hPa 0,0 l/m 1,4 km/h (1 Bft) NO 52 0 min 0,000 mm 0,8 UV-I 185 W/m 4,3 C 6,3 C 9,7 km/h (2 Bft)
04.02.2017 12:40 6,5 C 87 % 1000,9 hPa 0,0 l/m 3,0 km/h (1 Bft) O-NO 74 0 min 0,000 mm 0,8 UV-I 189 W/m 4,5 C 6,5 C 9,7 km/h (2 Bft)
04.02.2017 12:45 6,6 C 86 % 1000,8 hPa 0,0 l/m 3,9 km/h (1 Bft) O 93 0 min 0,000 mm 0,8 UV-I 188 W/m 4,4 C 6,6 C 9,7 km/h (2 Bft)
04.02.2017 12:50 6,7 C 86 % 1000,7 hPa 0,0 l/m 4,2 km/h (1 Bft) O-NO 63 0 min 0,000 mm 0,8 UV-I 191 W/m 4,5 C 6,7 C 8,0 km/h (2 Bft)
04.02.2017 12:55 6,8 C 85 % 1000,7 hPa 0,0 l/m 4,4 km/h (1 Bft) NO 51 0 min 0,000 mm 0,8 UV-I 196 W/m 4,5 C 6,8 C 8,0 km/h (2 Bft)
04.02.2017 13:00 6,8 C 83 % 1000,6 hPa 0,0 l/m 4,0 km/h (1 Bft) O-NO 64 5 min 0,000 mm 0,8 UV-I 223 W/m 4,1 C 6,8 C 8,0 km/h (2 Bft)
04.02.2017 13:05 6,8 C 83 % 1000,6 hPa 0,0 l/m 5,0 km/h (1 Bft) O 88 5 min 0,076 mm 0,9 UV-I 245 W/m 4,1 C 6,8 C 11,3 km/h (2 Bft)
04.02.2017 13:10 6,9 C 83 % 1000,7 hPa 0,0 l/m 6,0 km/h (2 Bft) O-NO 67 5 min 0,000 mm 0,9 UV-I 265 W/m 4,2 C 6,9 C 12,9 km/h (3 Bft)
04.02.2017 13:15 7,1 C 82 % 1000,6 hPa 0,0 l/m 4,3 km/h (1 Bft) NO 47 5 min 0,000 mm 0,9 UV-I 245 W/m 4,2 C 7,1 C 11,3 km/h (2 Bft)
04.02.2017 13:20 7,2 C 82 % 1000,5 hPa 0,0 l/m 6,1 km/h (2 Bft) O-SO 102 5 min 0,000 mm 0,9 UV-I 220 W/m 4,3 C 7,2 C 11,3 km/h (2 Bft)
04.02.2017 13:25 7,2 C 81 % 1000,5 hPa 0,0 l/m 5,1 km/h (1 Bft) O-NO 74 0 min 0,000 mm 0,8 UV-I 196 W/m 4,2 C 7,2 C 12,9 km/h (3 Bft)
04.02.2017 13:30 7,2 C 81 % 1000,5 hPa 0,0 l/m 4,5 km/h (1 Bft) O 84 0 min 0,000 mm 0,8 UV-I 173 W/m 4,2 C 7,2 C 12,9 km/h (3 Bft)
04.02.2017 13:35 7,2 C 81 % 1000,5 hPa 0,0 l/m 3,9 km/h (1 Bft) O-NO 63 0 min 0,000 mm 0,8 UV-I 162 W/m 4,2 C 7,2 C 9,7 km/h (2 Bft)
04.02.2017 13:40 7,2 C 81 % 1000,4 hPa 0,0 l/m 5,2 km/h (1 Bft) O-NO 70 0 min 0,000 mm 0,7 UV-I 155 W/m 4,2 C 7,2 C 11,3 km/h (2 Bft)
04.02.2017 13:45 7,2 C 82 % 1000,3 hPa 0,0 l/m 3,5 km/h (1 Bft) O 101 0 min 0,000 mm 0,7 UV-I 143 W/m 4,3 C 7,2 C 8,0 km/h (2 Bft)
04.02.2017 13:50 7,2 C 81 % 1000,3 hPa 0,0 l/m 2,9 km/h (1 Bft) O-NO 61 0 min 0,000 mm 0,6 UV-I 126 W/m 4,2 C 7,2 C 8,0 km/h (2 Bft)
04.02.2017 13:55 7,2 C 81 % 1000,3 hPa 0,0 l/m 3,7 km/h (1 Bft) O-NO 57 0 min 0,000 mm 0,6 UV-I 115 W/m 4,2 C 7,2 C 6,4 km/h (2 Bft)
04.02.2017 14:00 7,2 C 81 % 1000,2 hPa 0,0 l/m 4,0 km/h (1 Bft) O 94 0 min 0,000 mm 0,6 UV-I 118 W/m 4,2 C 7,2 C 11,3 km/h (2 Bft)
04.02.2017 14:05 7,2 C 81 % 1000,2 hPa 0,0 l/m 4,6 km/h (1 Bft) O-NO 71 0 min 0,076 mm 0,5 UV-I 112 W/m 4,2 C 7,2 C 11,3 km/h (2 Bft)
04.02.2017 14:10 7,2 C 81 % 1000,1 hPa 0,0 l/m 3,5 km/h (1 Bft) O 94 0 min 0,000 mm 0,5 UV-I 101 W/m 4,2 C 7,2 C 8,0 km/h (2 Bft)
04.02.2017 14:15 7,2 C 80 % 1000,1 hPa 0,0 l/m 4,8 km/h (1 Bft) O-NO 69 0 min 0,000 mm 0,3 UV-I 89 W/m 4,0 C 7,2 C 11,3 km/h (2 Bft)
04.02.2017 14:20 7,2 C 80 % 1000,1 hPa 0,0 l/m 3,2 km/h (1 Bft) O 89 0 min 0,000 mm 0,0 UV-I 70 W/m 4,0 C 7,2 C 8,0 km/h (2 Bft)
04.02.2017 14:25 7,2 C 80 % 1000,1 hPa 0,0 l/m 3,2 km/h (1 Bft) O 100 0 min 0,000 mm 0,0 UV-I 50 W/m 4,0 C 7,2 C 8,0 km/h (2 Bft)
04.02.2017 14:30 7,2 C 80 % 1000,1 hPa 0,0 l/m 2,8 km/h (1 Bft) NO 45 0 min 0,000 mm 0,0 UV-I 37 W/m 4,0 C 7,2 C 8,0 km/h (2 Bft)
04.02.2017 14:35 7,1 C 80 % 1000,1 hPa 0,0 l/m 4,5 km/h (1 Bft) O 96 0 min 0,000 mm 0,0 UV-I 36 W/m 3,9 C 7,1 C 8,0 km/h (2 Bft)
04.02.2017 14:40 7,1 C 80 % 1000,1 hPa 0,0 l/m 2,1 km/h (1 Bft) O-NO 57 0 min 0,000 mm 0,0 UV-I 37 W/m 3,9 C 7,1 C 6,4 km/h (2 Bft)
04.02.2017 14:45 7,1 C 80 % 1000,2 hPa 0,0 l/m 2,2 km/h (1 Bft) NO 53 0 min 0,000 mm 0,0 UV-I 39 W/m 3,9 C 7,1 C 8,0 km/h (2 Bft)
04.02.2017 14:50 7,0 C 79 % 1000,2 hPa 0,0 l/m 3,3 km/h (1 Bft) NO 36 0 min 0,000 mm 0,0 UV-I 33 W/m 3,6 C 7,0 C 8,0 km/h (2 Bft)
04.02.2017 14:55 6,9 C 79 % 1000,1 hPa 0,0 l/m 2,2 km/h (1 Bft) O-NO 61 0 min 0,000 mm 0,0 UV-I 26 W/m 3,5 C 6,9 C 9,7 km/h (2 Bft)
04.02.2017 15:00 6,9 C 79 % 1000,1 hPa 0,0 l/m 3,5 km/h (1 Bft) O-SO 103 0 min 0,000 mm 0,0 UV-I 28 W/m 3,5 C 6,9 C 11,3 km/h (2 Bft)
04.02.2017 15:05 6,9 C 80 % 1000,1 hPa 0,0 l/m 2,4 km/h (1 Bft) O 94 0 min 0,026 mm 0,0 UV-I 25 W/m 3,7 C 6,9 C 8,0 km/h (2 Bft)
04.02.2017 15:10 6,8 C 80 % 1000,1 hPa 0,0 l/m 3,5 km/h (1 Bft) O 80 0 min 0,000 mm 0,0 UV-I 24 W/m 3,6 C 6,8 C 8,0 km/h (2 Bft)
04.02.2017 15:15 6,8 C 80 % 1000,1 hPa 0,0 l/m 3,0 km/h (1 Bft) O-SO 120 0 min 0,000 mm 0,0 UV-I 27 W/m 3,6 C 6,8 C 8,0 km/h (2 Bft)
04.02.2017 15:20 6,7 C 80 % 1000,1 hPa 0,0 l/m 2,9 km/h (1 Bft) O-NO 69 0 min 0,000 mm 0,0 UV-I 25 W/m 3,5 C 6,7 C 11,3 km/h (2 Bft)
04.02.2017 15:25 6,6 C 80 % 1000,0 hPa 0,0 l/m 2,8 km/h (1 Bft) O 91 0 min 0,000 mm 0,0 UV-I 21 W/m 3,4 C 6,6 C 8,0 km/h (2 Bft)
04.02.2017 15:30 6,6 C 81 % 1000,0 hPa 0,0 l/m 3,8 km/h (1 Bft) NO 42 0 min 0,000 mm 0,0 UV-I 18 W/m 3,6 C 6,6 C 11,3 km/h (2 Bft)
04.02.2017 15:35 6,6 C 81 % 1000,0 hPa 0,0 l/m 1,9 km/h (1 Bft) O-NO 57 0 min 0,000 mm 0,0 UV-I 16 W/m 3,6 C 6,6 C 6,4 km/h (2 Bft)
04.02.2017 15:40 6,5 C 82 % 1000,0 hPa 0,0 l/m 3,4 km/h (1 Bft) O-NO 59 0 min 0,000 mm 0,0 UV-I 18 W/m 3,7 C 6,5 C 6,4 km/h (2 Bft)
04.02.2017 15:45 6,4 C 82 % 999,9 hPa 0,0 l/m 3,8 km/h (1 Bft) NO 50 0 min 0,000 mm 0,0 UV-I 19 W/m 3,6 C 6,4 C 9,7 km/h (2 Bft)
04.02.2017 15:50 6,4 C 82 % 999,9 hPa 0,0 l/m 1,7 km/h (1 Bft) NO 55 0 min 0,000 mm 0,0 UV-I 18 W/m 3,6 C 6,4 C 4,8 km/h (1 Bft)
04.02.2017 15:55 6,3 C 82 % 999,9 hPa 0,0 l/m 3,6 km/h (1 Bft) O-NO 74 0 min 0,000 mm 0,0 UV-I 15 W/m 3,5 C 6,3 C 8,0 km/h (2 Bft)
04.02.2017 16:00 6,3 C 83 % 999,9 hPa 0,0 l/m 2,4 km/h (1 Bft) NO 50 0 min 0,000 mm 0,0 UV-I 18 W/m 3,6 C 6,3 C 8,0 km/h (2 Bft)
04.02.2017 16:05 6,2 C 84 % 1000,0 hPa 0,0 l/m 3,6 km/h (1 Bft) O-NO 59 0 min 0,025 mm 0,0 UV-I 20 W/m 3,7 C 6,2 C 8,0 km/h (2 Bft)
04.02.2017 16:10 6,0 C 85 % 999,8 hPa 0,0 l/m 2,6 km/h (1 Bft) O-NO 65 0 min 0,000 mm 0,0 UV-I 24 W/m 3,7 C 6,0 C 8,0 km/h (2 Bft)
04.02.2017 16:15 5,9 C 85 % 999,8 hPa 0,0 l/m 1,0 km/h (0 Bft) O-NO 57 0 min 0,000 mm 0,0 UV-I 26 W/m 3,6 C 5,9 C 6,4 km/h (2 Bft)
04.02.2017 16:20 5,8 C 86 % 999,7 hPa 0,2 l/m 2,4 km/h (1 Bft) O-NO 61 0 min 0,000 mm 0,0 UV-I 31 W/m 3,6 C 5,8 C 12,9 km/h (3 Bft)
04.02.2017 16:25 5,8 C 86 % 999,6 hPa 0,0 l/m 2,7 km/h (1 Bft) O-NO 61 0 min 0,000 mm 0,0 UV-I 33 W/m 3,6 C 5,8 C 8,0 km/h (2 Bft)
04.02.2017 16:30 5,8 C 87 % 999,6 hPa 0,0 l/m 1,0 km/h (0 Bft) NO 55 0 min 0,000 mm 0,0 UV-I 30 W/m 3,8 C 5,8 C 6,4 km/h (2 Bft)
04.02.2017 16:35 5,7 C 88 % 999,5 hPa 0,0 l/m 0,1 km/h (0 Bft) O-NO 59 0 min 0,000 mm 0,0 UV-I 23 W/m 3,9 C 5,7 C 1,6 km/h (1 Bft)
04.02.2017 16:40 5,7 C 88 % 999,5 hPa 0,0 l/m 0,5 km/h (0 Bft) N-NO 26 0 min 0,000 mm 0,0 UV-I 15 W/m 3,9 C 5,7 C 4,8 km/h (1 Bft)
04.02.2017 16:45 5,6 C 89 % 999,5 hPa 0,0 l/m 0,0 km/h (0 Bft) O-NO 67 0 min 0,000 mm 0,0 UV-I 11 W/m 3,9 C 5,6 C 0,0 km/h (0 Bft)
04.02.2017 16:50 5,6 C 89 % 999,5 hPa 0,0 l/m 0,0 km/h (0 Bft) N-NO 32 0 min 0,000 mm 0,0 UV-I 11 W/m 3,9 C 5,6 C 0,0 km/h (0 Bft)
04.02.2017 16:55 5,5 C 90 % 999,6 hPa 0,0 l/m 0,5 km/h (0 Bft) O-NO 71 0 min 0,000 mm 0,0 UV-I 12 W/m 4,0 C 5,5 C 4,8 km/h (1 Bft)
04.02.2017 17:00 5,4 C 90 % 999,5 hPa 0,0 l/m 1,1 km/h (1 Bft) O-NO 60 0 min 0,000 mm 0,0 UV-I 12 W/m 3,9 C 5,4 C 6,4 km/h (2 Bft)
04.02.2017 17:05 5,4 C 90 % 999,4 hPa 0,0 l/m 0,3 km/h (0 Bft) O-NO 78 0 min 0,000 mm 0,0 UV-I 12 W/m 3,9 C 5,4 C 3,2 km/h (1 Bft)
04.02.2017 17:10 5,3 C 90 % 999,4 hPa 0,0 l/m 0,0 km/h (0 Bft) O-NO 78 0 min 0,000 mm 0,0 UV-I 11 W/m 3,8 C 5,3 C 0,0 km/h (0 Bft)
04.02.2017 17:15 5,3 C 90 % 999,4 hPa 0,0 l/m 0,0 km/h (0 Bft) NO 53 0 min 0,000 mm 0,0 UV-I 8 W/m 3,8 C 5,3 C 0,0 km/h (0 Bft)
04.02.2017 17:20 5,3 C 90 % 999,4 hPa 0,2 l/m 0,3 km/h (0 Bft) O-NO 66 0 min 0,000 mm 0,0 UV-I 5 W/m 3,8 C 5,3 C 4,8 km/h (1 Bft)
04.02.2017 17:25 5,2 C 90 % 999,4 hPa 0,0 l/m 1,4 km/h (1 Bft) O-NO 62 0 min 0,000 mm 0,0 UV-I 0 W/m 3,7 C 5,2 C 8,0 km/h (2 Bft)
04.02.2017 17:30 5,1 C 90 % 999,3 hPa 0,0 l/m 0,2 km/h (0 Bft) NO 56 0 min 0,000 mm 0,0 UV-I 0 W/m 3,6 C 5,1 C 3,2 km/h (1 Bft)
04.02.2017 17:35 5,1 C 91 % 999,3 hPa 0,0 l/m 0,1 km/h (0 Bft) O-NO 65 0 min 0,000 mm 0,0 UV-I 0 W/m 3,8 C 5,1 C 1,6 km/h (1 Bft)
04.02.2017 17:40 5,1 C 90 % 999,4 hPa 0,0 l/m 1,1 km/h (1 Bft) O-NO 73 0 min 0,000 mm 0,0 UV-I 0 W/m 3,6 C 5,1 C 11,3 km/h (2 Bft)
04.02.2017 17:45 5,1 C 90 % 999,4 hPa 0,0 l/m 1,7 km/h (1 Bft) O-NO 71 0 min 0,000 mm 0,0 UV-I 0 W/m 3,6 C 5,1 C 6,4 km/h (2 Bft)
04.02.2017 17:50 5,0 C 90 % 999,4 hPa 0,0 l/m 0,1 km/h (0 Bft) O-SO 111 0 min 0,000 mm 0,0 UV-I 0 W/m 3,5 C 5,0 C 1,6 km/h (1 Bft)
04.02.2017 17:55 5,0 C 90 % 999,4 hPa 0,0 l/m 0,4 km/h (0 Bft) O 90 0 min 0,000 mm 0,0 UV-I 0 W/m 3,5 C 5,0 C 3,2 km/h (1 Bft)
04.02.2017 18:00 4,9 C 91 % 999,4 hPa 0,0 l/m 0,0 km/h (0 Bft) O 87 0 min 0,000 mm 0,0 UV-I 0 W/m 3,6 C 4,9 C 0,0 km/h (0 Bft)
04.02.2017 18:05 4,9 C 91 % 999,5 hPa 0,0 l/m 0,0 km/h (0 Bft) O-NO 57 0 min 0,000 mm 0,0 UV-I 0 W/m 3,6 C 4,9 C 0,0 km/h (0 Bft)
04.02.2017 18:10 4,8 C 91 % 999,6 hPa 0,0 l/m 0,0 km/h (0 Bft) O 84 0 min 0,000 mm 0,0 UV-I 0 W/m 3,5 C 4,8 C 0,0 km/h (0 Bft)
04.02.2017 18:15 4,8 C 91 % 999,5 hPa 0,0 l/m 0,0 km/h (0 Bft) O 84 0 min 0,000 mm 0,0 UV-I 0 W/m 3,5 C 4,8 C 0,0 km/h (0 Bft)
04.02.2017 18:20 4,8 C 92 % 999,5 hPa 0,2 l/m 0,0 km/h (0 Bft) O 84 0 min 0,000 mm 0,0 UV-I 0 W/m 3,6 C 4,8 C 0,0 km/h (0 Bft)
04.02.2017 18:25 4,8 C 92 % 999,5 hPa 0,0 l/m 0,0 km/h (0 Bft) O 84 0 min 0,000 mm 0,0 UV-I 0 W/m 3,6 C 4,8 C 0,0 km/h (0 Bft)
04.02.2017 18:30 4,7 C 92 % 999,5 hPa 0,2 l/m 0,0 km/h (0 Bft) O 84 0 min 0,000 mm 0,0 UV-I 0 W/m 3,5 C 4,7 C 0,0 km/h (0 Bft)
04.02.2017 18:35 4,7 C 92 % 999,5 hPa 0,0 l/m 0,0 km/h (0 Bft) O 84 0 min 0,000 mm 0,0 UV-I 0 W/m 3,5 C 4,7 C 0,0 km/h (0 Bft)
04.02.2017 18:40 4,7 C 92 % 999,4 hPa 0,0 l/m 0,0 km/h (0 Bft) O 84 0 min 0,000 mm 0,0 UV-I 0 W/m 3,5 C 4,7 C 0,0 km/h (0 Bft)
04.02.2017 18:45 4,7 C 93 % 999,4 hPa 0,0 l/m 0,0 km/h (0 Bft) NO 36 0 min 0,000 mm 0,0 UV-I 0 W/m 3,7 C 4,7 C 0,0 km/h (0 Bft)
04.02.2017 18:50 4,7 C 93 % 999,3 hPa 0,0 l/m 0,0 km/h (0 Bft) NO 45 0 min 0,000 mm 0,0 UV-I 0 W/m 3,7 C 4,7 C 0,0 km/h (0 Bft)
04.02.2017 18:55 4,7 C 93 % 999,3 hPa 0,0 l/m 0,0 km/h (0 Bft) N-NO 15 0 min 0,000 mm 0,0 UV-I 0 W/m 3,7 C 4,7 C 0,0 km/h (0 Bft)
04.02.2017 19:00 4,7 C 93 % 999,3 hPa 0,0 l/m 0,0 km/h (0 Bft) NO 48 0 min 0,000 mm 0,0 UV-I 0 W/m 3,7 C 4,7 C 0,0 km/h (0 Bft)
04.02.2017 19:05 4,6 C 93 % 999,3 hPa 0,0 l/m 0,0 km/h (0 Bft) NO 48 0 min 0,000 mm 0,0 UV-I 0 W/m 3,6 C 4,6 C 0,0 km/h (0 Bft)
04.02.2017 19:10 4,6 C 93 % 999,3 hPa 0,0 l/m 0,0 km/h (0 Bft) NO 48 0 min 0,000 mm 0,0 UV-I 0 W/m 3,6 C 4,6 C 0,0 km/h (0 Bft)
04.02.2017 19:15 4,4 C 93 % 999,3 hPa 0,0 l/m 0,0 km/h (0 Bft) NO 48 0 min 0,000 mm 0,0 UV-I 0 W/m 3,4 C 4,4 C 0,0 km/h (0 Bft)
04.02.2017 19:20 4,4 C 93 % 999,3 hPa 0,2 l/m 0,0 km/h (0 Bft) NO 48 0 min 0,000 mm 0,0 UV-I 0 W/m 3,4 C 4,4 C 0,0 km/h (0 Bft)
04.02.2017 19:25 4,4 C 93 % 999,3 hPa 0,0 l/m 0,0 km/h (0 Bft) NO 48 0 min 0,000 mm 0,0 UV-I 0 W/m 3,4 C 4,4 C 0,0 km/h (0 Bft)
04.02.2017 19:30 4,4 C 93 % 999,3 hPa 0,0 l/m 0,0 km/h (0 Bft) NO 48 0 min 0,000 mm 0,0 UV-I 0 W/m 3,4 C 4,4 C 0,0 km/h (0 Bft)
04.02.2017 19:35 4,4 C 93 % 999,4 hPa 0,0 l/m 0,0 km/h (0 Bft) NO 48 0 min 0,000 mm 0,0 UV-I 0 W/m 3,4 C 4,4 C 0,0 km/h (0 Bft)
04.02.2017 19:40 4,3 C 94 % 999,4 hPa 0,0 l/m 0,0 km/h (0 Bft) O 92 0 min 0,000 mm 0,0 UV-I 0 W/m 3,4 C 4,3 C 0,0 km/h (0 Bft)
04.02.2017 19:45 4,3 C 94 % 999,4 hPa 0,2 l/m 0,0 km/h (0 Bft) O 92 0 min 0,000 mm 0,0 UV-I 0 W/m 3,4 C 4,3 C 0,0 km/h (0 Bft)
04.02.2017 19:50 4,3 C 94 % 999,4 hPa 0,0 l/m 0,0 km/h (0 Bft) O 92 0 min 0,000 mm 0,0 UV-I 0 W/m 3,4 C 4,3 C 0,0 km/h (0 Bft)
04.02.2017 19:55 4,2 C 94 % 999,3 hPa 0,0 l/m 0,0 km/h (0 Bft) O 92 0 min 0,000 mm 0,0 UV-I 0 W/m 3,3 C 4,2 C 0,0 km/h (0 Bft)
04.02.2017 20:00 4,2 C 94 % 999,4 hPa 0,0 l/m 0,0 km/h (0 Bft) O 92 0 min 0,000 mm 0,0 UV-I 0 W/m 3,3 C 4,2 C 0,0 km/h (0 Bft)
04.02.2017 20:05 4,2 C 94 % 999,4 hPa 0,0 l/m 0,0 km/h (0 Bft) O 92 0 min 0,000 mm 0,0 UV-I 0 W/m 3,3 C 4,2 C 0,0 km/h (0 Bft)
04.02.2017 20:10 4,2 C 94 % 999,5 hPa 0,0 l/m 0,0 km/h (0 Bft) NO 53 0 min 0,000 mm 0,0 UV-I 0 W/m 3,3 C 4,2 C 0,0 km/h (0 Bft)
04.02.2017 20:15 4,2 C 94 % 999,5 hPa 0,2 l/m 0,0 km/h (0 Bft) NO 53 0 min 0,000 mm 0,0 UV-I 0 W/m 3,3 C 4,2 C 0,0 km/h (0 Bft)
04.02.2017 20:20 4,2 C 94 % 999,5 hPa 0,0 l/m 0,0 km/h (0 Bft) NO 53 0 min 0,000 mm 0,0 UV-I 0 W/m 3,3 C 4,2 C 0,0 km/h (0 Bft)
04.02.2017 20:25 4,2 C 94 % 999,4 hPa 0,0 l/m 0,0 km/h (0 Bft) NO 54 0 min 0,000 mm 0,0 UV-I 0 W/m 3,3 C 4,2 C 0,0 km/h (0 Bft)
04.02.2017 20:30 4,2 C 94 % 999,4 hPa 0,0 l/m 0,1 km/h (0 Bft) NO 34 0 min 0,000 mm 0,0 UV-I 0 W/m 3,3 C 4,2 C 1,6 km/h (1 Bft)
04.02.2017 20:35 4,2 C 94 % 999,4 hPa 0,0 l/m 0,0 km/h (0 Bft) N-NO 30 0 min 0,000 mm 0,0 UV-I 0 W/m 3,3 C 4,2 C 0,0 km/h (0 Bft)
04.02.2017 20:40 4,2 C 94 % 999,3 hPa 0,0 l/m 0,0 km/h (0 Bft) NO 50 0 min 0,000 mm 0,0 UV-I 0 W/m 3,3 C 4,2 C 0,0 km/h (0 Bft)
04.02.2017 20:45 4,3 C 94 % 999,4 hPa 0,0 l/m 0,4 km/h (0 Bft) O-NO 63 0 min 0,000 mm 0,0 UV-I 0 W/m 3,4 C 4,3 C 4,8 km/h (1 Bft)
04.02.2017 20:50 4,3 C 94 % 999,4 hPa 0,0 l/m 0,3 km/h (0 Bft) N-NO 19 0 min 0,000 mm 0,0 UV-I 0 W/m 3,4 C 4,3 C 6,4 km/h (2 Bft)
04.02.2017 20:55 4,4 C 94 % 999,4 hPa 0,0 l/m 0,7 km/h (0 Bft) O 91 0 min 0,000 mm 0,0 UV-I 0 W/m 3,5 C 4,4 C 3,2 km/h (1 Bft)
04.02.2017 21:00 4,4 C 94 % 999,5 hPa 0,0 l/m 0,0 km/h (0 Bft) O 99 0 min 0,000 mm 0,0 UV-I 0 W/m 3,5 C 4,4 C 0,0 km/h (0 Bft)
04.02.2017 21:05 4,4 C 94 % 999,5 hPa 0,0 l/m 0,0 km/h (0 Bft) O 100 0 min 0,000 mm 0,0 UV-I 0 W/m 3,5 C 4,4 C 0,0 km/h (0 Bft)
04.02.2017 21:10 4,3 C 94 % 999,6 hPa 0,0 l/m 0,0 km/h (0 Bft) O 100 0 min 0,000 mm 0,0 UV-I 0 W/m 3,4 C 4,3 C 0,0 km/h (0 Bft)
04.02.2017 21:15 4,3 C 94 % 999,6 hPa 0,0 l/m 0,0 km/h (0 Bft) O 100 0 min 0,000 mm 0,0 UV-I 0 W/m 3,4 C 4,3 C 0,0 km/h (0 Bft)
04.02.2017 21:20 4,3 C 94 % 999,6 hPa 0,2 l/m 0,0 km/h (0 Bft) O 100 0 min 0,000 mm 0,0 UV-I 0 W/m 3,4 C 4,3 C 0,0 km/h (0 Bft)
04.02.2017 21:25 4,3 C 94 % 999,6 hPa 0,0 l/m 0,0 km/h (0 Bft) O 100 0 min 0,000 mm 0,0 UV-I 0 W/m 3,4 C 4,3 C 0,0 km/h (0 Bft)
04.02.2017 21:30 4,3 C 94 % 999,6 hPa 0,0 l/m 0,0 km/h (0 Bft) O 100 0 min 0,000 mm 0,0 UV-I 0 W/m 3,4 C 4,3 C 0,0 km/h (0 Bft)
04.02.2017 21:35 4,3 C 94 % 999,7 hPa 0,0 l/m 0,0 km/h (0 Bft) O 100 0 min 0,000 mm 0,0 UV-I 0 W/m 3,4 C 4,3 C 0,0 km/h (0 Bft)
04.02.2017 21:40 4,3 C 94 % 999,7 hPa 0,0 l/m 0,0 km/h (0 Bft) O 100 0 min 0,000 mm 0,0 UV-I 0 W/m 3,4 C 4,3 C 0,0 km/h (0 Bft)
04.02.2017 21:45 4,3 C 94 % 999,8 hPa 0,0 l/m 0,0 km/h (0 Bft) O 100 0 min 0,000 mm 0,0 UV-I 0 W/m 3,4 C 4,3 C 0,0 km/h (0 Bft)
04.02.2017 21:50 4,3 C 94 % 999,8 hPa 0,0 l/m 0,0 km/h (0 Bft) O 100 0 min 0,000 mm 0,0 UV-I 0 W/m 3,4 C 4,3 C 0,0 km/h (0 Bft)
04.02.2017 21:55 4,3 C 94 % 999,8 hPa 0,0 l/m 0,0 km/h (0 Bft) O 100 0 min 0,000 mm 0,0 UV-I 0 W/m 3,4 C 4,3 C 0,0 km/h (0 Bft)
04.02.2017 22:00 4,3 C 94 % 999,7 hPa 0,0 l/m 0,0 km/h (0 Bft) O 100 0 min 0,000 mm 0,0 UV-I 0 W/m 3,4 C 4,3 C 0,0 km/h (0 Bft)
04.02.2017 22:05 4,3 C 94 % 999,8 hPa 0,0 l/m 0,0 km/h (0 Bft) O 100 0 min 0,000 mm 0,0 UV-I 0 W/m 3,4 C 4,3 C 0,0 km/h (0 Bft)
04.02.2017 22:10 4,3 C 94 % 999,8 hPa 0,0 l/m 0,0 km/h (0 Bft) O 100 0 min 0,000 mm 0,0 UV-I 0 W/m 3,4 C 4,3 C 0,0 km/h (0 Bft)
04.02.2017 22:15 4,2 C 94 % 999,9 hPa 0,0 l/m 0,0 km/h (0 Bft) O 100 0 min 0,000 mm 0,0 UV-I 0 W/m 3,3 C 4,2 C 0,0 km/h (0 Bft)
04.02.2017 22:20 4,2 C 94 % 999,8 hPa 0,0 l/m 0,0 km/h (0 Bft) O 100 0 min 0,000 mm 0,0 UV-I 0 W/m 3,3 C 4,2 C 0,0 km/h (0 Bft)
04.02.2017 22:25 4,2 C 94 % 999,9 hPa 0,0 l/m 0,0 km/h (0 Bft) O 100 0 min 0,000 mm 0,0 UV-I 0 W/m 3,3 C 4,2 C 0,0 km/h (0 Bft)
04.02.2017 22:30 4,2 C 94 % 999,9 hPa 0,0 l/m 0,0 km/h (0 Bft) O 100 0 min 0,000 mm 0,0 UV-I 0 W/m 3,3 C 4,2 C 0,0 km/h (0 Bft)
04.02.2017 22:35 4,2 C 94 % 1000,0 hPa 0,0 l/m 0,0 km/h (0 Bft) O 100 0 min 0,000 mm 0,0 UV-I 0 W/m 3,3 C 4,2 C 0,0 km/h (0 Bft)
04.02.2017 22:40 4,2 C 95 % 1000,1 hPa 0,2 l/m 0,0 km/h (0 Bft) O 100 0 min 0,000 mm 0,0 UV-I 0 W/m 3,5 C 4,2 C 0,0 km/h (0 Bft)
04.02.2017 22:45 4,2 C 95 % 1000,1 hPa 0,0 l/m 0,0 km/h (0 Bft) O 100 0 min 0,000 mm 0,0 UV-I 0 W/m 3,5 C 4,2 C 0,0 km/h (0 Bft)
04.02.2017 22:50 4,2 C 95 % 1000,2 hPa 0,0 l/m 0,0 km/h (0 Bft) O 100 0 min 0,000 mm 0,0 UV-I 0 W/m 3,5 C 4,2 C 0,0 km/h (0 Bft)
04.02.2017 22:55 4,2 C 95 % 1000,3 hPa 0,0 l/m 0,0 km/h (0 Bft) O 100 0 min 0,000 mm 0,0 UV-I 0 W/m 3,5 C 4,2 C 0,0 km/h (0 Bft)
04.02.2017 23:00 4,2 C 95 % 1000,4 hPa 0,0 l/m 0,1 km/h (0 Bft) W-SW 238 0 min 0,000 mm 0,0 UV-I 0 W/m 3,5 C 4,2 C 1,6 km/h (1 Bft)
04.02.2017 23:05 4,2 C 94 % 1000,4 hPa 0,0 l/m 0,7 km/h (0 Bft) NW 304 0 min 0,000 mm 0,0 UV-I 0 W/m 3,3 C 4,2 C 4,8 km/h (1 Bft)
04.02.2017 23:10 4,2 C 95 % 1000,5 hPa 0,0 l/m 0,0 km/h (0 Bft) NW 304 0 min 0,000 mm 0,0 UV-I 0 W/m 3,5 C 4,2 C 0,0 km/h (0 Bft)
04.02.2017 23:15 4,2 C 95 % 1000,5 hPa 0,0 l/m 0,0 km/h (0 Bft) NW 304 0 min 0,000 mm 0,0 UV-I 0 W/m 3,5 C 4,2 C 0,0 km/h (0 Bft)
04.02.2017 23:20 4,2 C 95 % 1000,5 hPa 0,2 l/m 0,0 km/h (0 Bft) NW 304 0 min 0,000 mm 0,0 UV-I 0 W/m 3,5 C 4,2 C 0,0 km/h (0 Bft)
04.02.2017 23:25 4,2 C 95 % 1000,5 hPa 0,0 l/m 0,0 km/h (0 Bft) NW 304 0 min 0,000 mm 0,0 UV-I 0 W/m 3,5 C 4,2 C 0,0 km/h (0 Bft)
04.02.2017 23:30 4,2 C 95 % 1000,6 hPa 0,0 l/m 0,0 km/h (0 Bft) NW 304 0 min 0,000 mm 0,0 UV-I 0 W/m 3,5 C 4,2 C 0,0 km/h (0 Bft)
04.02.2017 23:35 4,2 C 95 % 1000,7 hPa 0,0 l/m 0,0 km/h (0 Bft) NW 304 0 min 0,000 mm 0,0 UV-I 0 W/m 3,5 C 4,2 C 0,0 km/h (0 Bft)
04.02.2017 23:40 4,2 C 95 % 1000,7 hPa 0,0 l/m 0,0 km/h (0 Bft) NW 304 0 min 0,000 mm 0,0 UV-I 0 W/m 3,5 C 4,2 C 0,0 km/h (0 Bft)
04.02.2017 23:45 4,2 C 95 % 1000,8 hPa 0,0 l/m 0,0 km/h (0 Bft) NW 304 0 min 0,000 mm 0,0 UV-I 0 W/m 3,5 C 4,2 C 0,0 km/h (0 Bft)
04.02.2017 23:50 4,2 C 94 % 1000,8 hPa 0,0 l/m 0,0 km/h (0 Bft) NW 304 0 min 0,000 mm 0,0 UV-I 0 W/m 3,3 C 4,2 C 0,0 km/h (0 Bft)
04.02.2017 23:55 4,2 C 95 % 1001,0 hPa 0,0 l/m 0,0 km/h (0 Bft) NW 304 0 min 0,000 mm 0,0 UV-I 0 W/m 3,5 C 4,2 C 0,0 km/h (0 Bft)
_ Min-Zeit 09:00 14:50 17:30 - 00:00 - - - - - - 08:55 08:55 00:00
Minimum _ 2,0 C 79 % 999,3 hPa - 0,0 km/h (0 Bft) - - - - - - 1,1 C 2,1 C 0,0 km/h (0 Bft)
_ Max-Zeit 14:10 00:15 06:00 03:20 03:05 - - 13:00 13:05 13:05 13:10 01:00 13:20 02:50
Maximum _ 7,3 C 96 % 1004,2 hPa 0,2 l/m 7,3 km/h
W-SW (2 Bft)
- - 5 min 0,076 mm 0,9 UV-I 265 W/m 4,9 C 7,2 C 17,7 km/h
S-SW (3 Bft)
Durchschnitt _ 4,9 C 91 % 1001,7 hPa #2,4 l/m 1,3 km/h (1 Bft) O-NO - #25 min. #0,330 mm 0,6 UV-I 90 W/m 3,5 C 4,9 C 4,0 km/h (1 Bft)